Weather History for Vero Beach, FL

Change the Weather History Date:

Friday, December 14, 2012

  Actual Average Record
Temperature  
Mean Temperature 69 °F 65 °F  
Max Temperature 77 °F 74 °F 85 °F (1991)
Min Temperature 60 °F 55 °F 26 °F (2010)
Degree Days  
Heating Degree Days 0 3  
Month to date heating degree days 0 35  
Since 1 July heating degree days 52 65  
Cooling Degree Days 4 3  
Month to date cooling degree days 78 49  
Year to date cooling degree days 3497 3360  
Growing Degree Days 18 (Base 50)    
Moisture  
Dew Point 62 °F    
Average Humidity 75    
Maximum Humidity 93    
Minimum Humidity 56    
Precipitation  
Precipitation 0.17 in 0.06 in 1.51 in (1977)
Month to date precipitation 3.28 0.99  
Year to date precipitation 49.67 50.67  
Sea Level Pressure  
Sea Level Pressure 30.12 in    
Wind  
Wind Speed 10 mph (NNW)    
Max Wind Speed 21 mph    
Max Gust Speed 25 mph    
Visibility 8 miles    
Events Rain    
T = Trace of Precipitation, MM = Missing Value Source: NWS Daily Summary

Daily Weather History Graph

Daily Weather History Graph

Search for Another Location

Airport:

Trip Planner

Search our weather history database for the weather conditions in past years. The results will help you decide how hot, cold, wet, or windy it might be!

Date:

Astronomy

Dec. 14, 2012 Rise Set
Actual Time 7:04 AM EST 5:28 PM EST
Civil Twilight 6:38 AM EST 5:54 PM EST
Nautical Twilight 6:09 AM EST 6:23 PM EST
Astronomical Twilight 5:40 AM EST 6:52 PM EST
Moon 8:11 AM EST (12/14) 7:14 PM EST (12/14)
Length of Visible Light 11h 15m
Length of Day
10h 24m
Waxing Crescent, 3% of the Moon is Illuminated
Dec 14
Waxing Crescent
Dec 20
First Quarter
Dec 28
Full
Jan 4
Last Quarter
Jan 11
New

Hourly Weather History & Observations

Time (EST) Temp. Dew Point Humidity Pressure Visibility Wind Dir Wind Speed Gust Speed Precip Events Conditions
12:01 AM 60.8 °F 57.2 °F 88% 30.12 in 10.0 mi NW 10.4 mph - 0.00 in   Overcast
12:40 AM 60.8 °F 59.0 °F 94% 30.12 in 9.0 mi NW 8.1 mph - 0.00 in   Overcast
12:53 AM 60.1 °F 57.9 °F 93% 30.12 in 10.0 mi NW 8.1 mph - 0.00 in   Overcast
1:53 AM 60.1 °F 57.9 °F 93% 30.12 in 8.0 mi NW 10.4 mph - N/A   Overcast
2:01 AM 60.8 °F 57.2 °F 88% 30.12 in 8.0 mi NW 10.4 mph - N/A   Overcast
2:53 AM 61.0 °F 59.0 °F 93% 30.12 in 8.0 mi NNW 8.1 mph - 0.00 in Rain Light Rain
3:53 AM 61.0 °F 59.0 °F 93% 30.11 in 9.0 mi NW 8.1 mph - 0.01 in   Overcast
4:53 AM 62.1 °F 60.1 °F 93% 30.10 in 8.0 mi NW 8.1 mph - N/A   Overcast
5:53 AM 62.1 °F 61.0 °F 96% 30.12 in 9.0 mi NNW 8.1 mph - N/A   Scattered Clouds
6:53 AM 62.1 °F 60.1 °F 93% 30.13 in 9.0 mi NW 4.6 mph - N/A   Partly Cloudy
7:53 AM 62.1 °F 61.0 °F 96% 30.14 in 7.0 mi WNW 4.6 mph - N/A   Clear
8:53 AM 66.9 °F 63.0 °F 87% 30.16 in 10.0 mi NW 4.6 mph - N/A   Clear
9:53 AM 75.0 °F 59.0 °F 57% 30.17 in 10.0 mi NNE 13.8 mph - N/A   Clear
10:53 AM 75.9 °F 62.1 °F 62% 30.17 in 10.0 mi NNE 15.0 mph - N/A   Clear
11:53 AM 75.9 °F 63.0 °F 64% 30.16 in 10.0 mi NNE 13.8 mph 23.0 mph N/A   Partly Cloudy
12:53 PM 77.0 °F 61.0 °F 58% 30.14 in 10.0 mi North 16.1 mph 21.9 mph N/A   Partly Cloudy
1:53 PM 75.0 °F 61.0 °F 62% 30.12 in 10.0 mi NNE 16.1 mph 23.0 mph N/A   Scattered Clouds
2:53 PM 73.9 °F 61.0 °F 64% 30.10 in 10.0 mi North 17.3 mph 24.2 mph N/A   Clear
3:53 PM 72.0 °F 63.0 °F 73% 30.10 in 10.0 mi North 12.7 mph - N/A   Clear
4:53 PM 69.1 °F 63.0 °F 81% 30.09 in 10.0 mi North 12.7 mph 19.6 mph N/A   Clear
5:32 PM 68.0 °F 64.4 °F 88% 30.11 in 4.0 mi North 12.7 mph - 0.00 in Rain Light Rain
5:34 PM 68.0 °F 64.4 °F 88% 30.10 in 4.0 mi North 11.5 mph - 0.00 in Rain Light Rain
5:53 PM 68.0 °F 64.0 °F 87% 30.11 in 10.0 mi North 11.5 mph - 0.01 in   Overcast
6:53 PM 66.9 °F 63.0 °F 87% 30.12 in 10.0 mi North 8.1 mph - N/A   Scattered Clouds
7:53 PM 66.0 °F 63.0 °F 90% 30.12 in 10.0 mi North 8.1 mph - N/A   Mostly Cloudy
8:53 PM 66.0 °F 64.0 °F 93% 30.12 in 10.0 mi NNW 5.8 mph - N/A   Overcast
9:06 PM 66.2 °F 64.4 °F 94% 30.13 in 10.0 mi NNW 5.8 mph - N/A   Overcast
9:53 PM 66.0 °F 64.0 °F 93% 30.13 in 10.0 mi NW 4.6 mph - N/A   Mostly Cloudy
10:02 PM 66.2 °F 64.4 °F 94% 30.13 in 9.0 mi NW 8.1 mph - N/A   Mostly Cloudy
10:53 PM 64.9 °F 63.0 °F 93% 30.13 in 5.0 mi WSW 6.9 mph - 0.01 in Rain Light Rain
11:07 PM 64.4 °F 62.6 °F 94% 30.14 in 3.0 mi WNW 10.4 mph - 0.06 in Rain Heavy Rain
11:37 PM 62.6 °F 62.6 °F 100% 30.13 in 9.0 mi NW 4.6 mph - 0.07 in   Overcast
11:53 PM 63.0 °F 61.0 °F 93% 30.12 in 2.5 mi NW 9.2 mph - 0.13 in Rain Heavy Rain